Torrington, WY

12:32 PM MDT on August 30, 2016 (GMT -0600)
Torrington Municipal

Weather History for KTOR - April, 2013

Change the Weather History Date:

Thursday, April 11, 2013

  Actual Average Record
Temperature  
Mean Temperature 23 °F 45 °F  
Max Temperature 43 °F 60 °F 78 °F (2003)
Min Temperature 2 °F 31 °F 2 °F (2013)
Degree Days  
Heating Degree Days 42 20  
Month to date heating degree days 278 235  
Since 1 July heating degree days 5743 5919  
Cooling Degree Days 0 0  
Month to date cooling degree days 0 0  
Year to date cooling degree days 0 0  
Moisture  
Dew Point 18 °F    
Average Humidity 79    
Maximum Humidity 95    
Minimum Humidity 62    
Precipitation  
Precipitation 0.00 in 0.05 in 0.14 in (2001)
Month to date precipitation 0.23 0.45  
Year to date precipitation 0.77 1.80  
Sea Level Pressure  
Sea Level Pressure 29.93 in    
Wind  
Wind Speed 8 mph (WNW)    
Max Wind Speed 23 mph    
Max Gust Speed 29 mph    
Visibility 10 miles    
Events      
T = Trace of Precipitation, MM = Missing Value Source: NWS Daily Summary

Daily Weather History Graph

Daily Weather History Graph

Search for Another Location

Airport or City:

Trip Planner

Search our weather history database for the weather conditions in past years. The results will help you decide how hot, cold, wet, or windy it might be!

Date:

Astronomy

Apr. 11, 2013 Rise Set
Actual Time 6:22 AM MDT 7:33 PM MDT
Civil Twilight 5:53 AM MDT 8:02 PM MDT
Nautical Twilight 5:18 AM MDT 8:37 PM MDT
Astronomical Twilight 4:42 AM MDT 9:13 PM MDT
Moon 6:53 AM MDT (4/11) 9:12 PM MDT (4/11)
Length of Visible Light 14h 09m
Length of Day
13h 11m
New Moon, 2% of the Moon is Illuminated
Apr 11
New Moon
Apr 18
First Quarter
Apr 25
Full
May 2
Last Quarter
May 9
New

Hourly Weather History & Observations

Time (MDT) Temp. Windchill Dew Point Humidity Pressure Visibility Wind Dir Wind Speed Gust Speed Precip Events Conditions
12:53 AM 10.9 °F - 7.0 °F 84% 30.02 in 10.0 mi Calm Calm - N/A   Clear
1:53 AM 8.1 °F -0.5 °F 5.0 °F 87% 30.00 in 10.0 mi SW 4.6 mph - N/A   Clear
2:53 AM 3.0 °F - 1.9 °F 95% 29.96 in 10.0 mi Calm Calm - N/A   Clear
3:53 AM 3.9 °F -3.4 °F 1.9 °F 91% 29.94 in 10.0 mi SSW 3.5 mph - N/A   Clear
4:53 AM 3.0 °F -4.4 °F -0.0 °F 87% 29.94 in 10.0 mi West 3.5 mph - N/A   Clear
5:53 AM 1.9 °F -9.2 °F -0.9 °F 88% 29.94 in 10.0 mi NNW 5.8 mph - N/A   Mostly Cloudy
6:53 AM 3.9 °F - 1.9 °F 91% 29.94 in 10.0 mi Calm Calm - N/A   Scattered Clouds
7:53 AM 9.0 °F 0.6 °F 6.1 °F 88% 29.93 in 10.0 mi WNW 4.6 mph - N/A   Overcast
8:53 AM 12.9 °F 6.9 °F 10.0 °F 88% 29.91 in 10.0 mi NW 3.5 mph - N/A   Overcast
9:53 AM 18.0 °F 11.1 °F 12.9 °F 81% 29.90 in 10.0 mi West 4.6 mph - N/A   Overcast
11:53 AM 24.1 °F 14.4 °F 18.0 °F 77% 29.92 in 10.0 mi SE 9.2 mph - N/A   Scattered Clouds
12:53 PM 26.1 °F 19.4 °F 19.9 °F 78% 29.92 in 10.0 mi SE 5.8 mph - N/A   Mostly Cloudy
1:53 PM 28.0 °F 20.8 °F 21.9 °F 78% 29.92 in 10.0 mi South 6.9 mph - N/A   Mostly Cloudy
2:53 PM 42.1 °F 33.3 °F 30.9 °F 65% 29.88 in 10.0 mi NW 19.6 mph 27.6 mph N/A   Partly Cloudy
3:53 PM 43.0 °F 35.1 °F 30.9 °F 62% 29.86 in 10.0 mi NW 17.3 mph - N/A   Partly Cloudy
4:53 PM 43.0 °F 34.8 °F 32.0 °F 65% 29.88 in 10.0 mi NW 18.4 mph 26.5 mph N/A   Clear
5:53 PM 42.1 °F 34.5 °F 32.0 °F 67% 29.90 in 10.0 mi NW 15.0 mph 23.0 mph N/A   Scattered Clouds
6:53 PM 37.9 °F 31.5 °F 32.0 °F 79% 29.92 in 10.0 mi NNW 9.2 mph - N/A   Scattered Clouds
7:53 PM 36.0 °F 29.6 °F 32.0 °F 86% 29.93 in 10.0 mi NNW 8.1 mph - N/A   Mostly Cloudy
8:53 PM 37.0 °F 31.0 °F 32.0 °F 82% 29.94 in 10.0 mi NNW 8.1 mph - N/A   Overcast
9:53 PM 35.1 °F 31.0 °F 32.0 °F 89% 29.95 in 10.0 mi West 4.6 mph - N/A   Overcast
10:53 PM 35.1 °F 27.4 °F 30.9 °F 85% 29.94 in 10.0 mi North 10.4 mph - N/A   Mostly Cloudy
11:53 PM 34.0 °F 26.0 °F 30.0 °F 85% 29.96 in 10.0 mi NNW 10.4 mph - N/A   Clear